Weather in Kharyyalakh

Russia / Sakha (Yakutia) Republic     68°29′52″N   112°24′37″E
temp.,
°C
wind,
m/s
gust,
m/s
humid.,
%
clouds,
%
prec.,
mm/h
press.,
hPa
HPBL,
m
11 may, tue
tue1100:00−4n6129178 0.0 1030398
03:00−6n5109121 0.0 1031262
06:00−7n4109258 0.0 1031379
09:00−4nne688498 0.0 1031689
12:00−1nne67505 0.0 10301006
15:000nne66443 0.0 10281057
18:000nne56485 0.0 10271016
21:00−1nne45575 0.0 1027816
12 may, wed
wed1200:00−3nne24725 0.0 1027154
03:00−3n12735 0.0 1025143
06:00−3wnw126834 0.0 1024286
09:00−1w225117 0.0 1022508
12:00+2w334365 0.0 1020795
15:00+4w444099 0.0 10181059
18:00+5w4543100 0.0 10171124
21:00+4wsw345898 0.0 101692
13 may, thu
thu1300:00+1ssw3367100 0.0 101442
03:00+1s3669100 0.0 1013132
06:00+1s3771100 0.0 1011224
09:00+3sw4565100 0.0 1009490
12:00+5wsw467198 0.0 1008846
15:00+4w4695100 0.4 1007640
18:00+3wsw4697100 1.2 1008593
21:00+3wnw1398100 1.6 1008491
14 may, fri
fri1400:00+2e1195100 0.0 1007148
03:00+2ese3698100 0.1 1005322
06:00+2ese1298100 0.4 1004169
09:00+2se1195100 1.5 1004101
12:00+2nnw0297100 0.8 1003339
15:00+2nne3396100 0.8 1003232
18:00+1ne4898100 0.4 1004328
21:00+1ne3797100 0.8 1005359
15 may, sat
sat1500:000ne4897100 0.3 1005416
03:000ene6995100 0.5 1003450
06:00−1ene71297100 2.1 1001451
09:00−1ene81397100 5.6 998506
12:00+2ene711100100 0.1 996320
15:00+7nnw0684100 0.2 993495
18:00+5nne4492100 0.1 993116
21:00+2nne5997100 0.1 992238